Taganrog Yuzhny Airport

Jump to: basic info | weather | comments

Related pages: nearby airports | nearby navaids | notams | map

Basic information (top)

Codes: TGK URRT
Location: lon 47.200001, lat 38.849998, elev 118 ft / 36 m msl
Status: medium_airport

Weather (top)

Current conditions for Rostov-na-Donu Airport 40nm (73km) E (rec'd 2014/10/30 18:30Z):

URRR 301830Z 09007MPS CAVOK 09/02 Q1021 04CLRD70 NOSIG

Airport forecast for Rostov-na-Donu Airport 40nm (73km) E (rec'd 2014/10/30 18:24Z):

TAF URRR 301700Z 3018/3118 08007G12MPS 9999 SCT007 530005 
      TEMPO 3100/3106 2100 BR

Latest comments (top)

dgs: gsdg [read]

More... (top)

See also NOTAMs and nearby airports and navaids, or visit the Taganrog Yuzhny Airport page at the main OurAirports website..